Regional Weather Roundup
Issued by NWS

Home | Current Version | Previous Version | Graphics & Text | Print | Product List | Glossary On
Versions: 1 2 3 4 5 6 7 8 9 10 11 12 13 14 15 16 17 18 19 20 21 22 23 24 25 26 27 28 29 30 31 32 33 34 35 36 37 38 39 40 41 42 43 44 45 46 47 48 49 50
000
ASUS45 KABQ 011210
RWRNM
WEATHER ROUNDUP FOR NEW MEXICO
NATIONAL WEATHER SERVICE ALBUQUERQUE NM
600 AM MDT WED OCT 01 2014

NOTE: "FAIR" MEANS FEW OR NO CLOUDS BELOW 12,000 FEET AGL WITH NO
       SIGNIFICANT WEATHER OR OBSTRUCTIONS TO VISION.

      THIS PRODUCT IS RELEASED AS TWO VERSIONS.  ONE VERSION NEAR
      THE TOP OF THE HOUR CONTAINING PRELIMINARY DATA FROM ALBUQUERQUE
      AND OTHER STATIONS.  A FINAL VERSION WITH ADDITIONAL DATA IS
      ISSUED ABOUT 10 MINUTES AFTER THE HOUR.

NMZ501-503-504-510>518-011300-
NORTHWEST PLATEAU/NORTHCENTRAL MOUNTAINS

CITY           SKY/WX    TMP DP  RH WIND       PRES   REMARKS
FARMINGTON     CLEAR     46  41  82 E8        29.94S
6HR MIN TEMP:  45; 6HR MAX TEMP:  48;

LOS ALAMOS     PTCLDY    48  32  53 CALM      30.04S
SANTA FE       PTCLDY    42  31  64 N10       29.99S
6HR MIN TEMP:  40; 6HR MAX TEMP:  52;

TAOS           PTCLDY    30  27  86 N6        30.05R WCI  24
ANGEL FIRE     FAIR      24  21  89 CALM      30.09R

$$
NMZ402-403-502-505>509-011300-
WESTCENTRAL MOUNTAINS/SOUTHWEST MOUNTAINS

CITY           SKY/WX    TMP DP  RH WIND       PRES   REMARKS
GALLUP         CLEAR     41  36  82 CALM      30.01R
6HR MIN TEMP:  40; 6HR MAX TEMP:  48;

GRANTS         CLEAR     36  30  80 CALM      30.04S
SILVER CITY    CLEAR     50  34  53 NW10      30.00R

$$
NMZ407-409-411-412-011300-
SOUTHERN DESERTS

CITY           SKY/WX    TMP DP  RH WIND       PRES   REMARKS
LORDSBURG      FAIR      46  37  71 MISG      29.94S
DEMING         CLEAR     51  39  63 W5        29.93R
6HR MIN TEMP:  51; 6HR MAX TEMP:  60;

LAS CRUCES     CLEAR     57  36  46 W7        29.94R
HOLLOMAN AFB   PTCLDY    55  40  58 S7        29.89R
ALAMOGORDO     PTCLDY    54  37  54 W5        29.91R
T OR C         CLEAR     56  35  45 NW8       29.93R
6HR MIN TEMP:  55; 6HR MAX TEMP:  65;


$$
NMZ519>523-011300-
CENTRAL VALLEYS/CENTRAL HIGHLANDS

CITY           SKY/WX    TMP DP  RH WIND       PRES   REMARKS
ALBUQUERQUE    CLEAR     52  34  50 N5        29.97R
6HR MIN TEMP:  51; 6HR MAX TEMP:  60;

DOUBLE EAGLE   CLEAR     43  32  65 W7        29.98F
MORIARTY ARPT  FAIR      32  30  92 CALM      30.01R
CLINES CORNERS PTCLDY    43  31  62 NW10      30.00S
6HR MIN TEMP:  41; 6HR MAX TEMP:  47;

BELEN          NOT AVBL
SOCORRO        FAIR      51  37  59 W3        29.95R
6HR MIN TEMP:  50; 6HR MAX TEMP:  63;


$$
NMZ524>526-539-540-011300-
SOUTHCENTRAL MOUNTAINS

CITY           SKY/WX    TMP DP  RH WIND       PRES   REMARKS
RUIDOSO        NOT AVBL

$$
NMZ527>531-011300-
NORTHEAST HIGHLANDS/NORTHEAST PLAINS

CITY           SKY/WX    TMP DP  RH WIND       PRES   REMARKS
LAS VEGAS      CLEAR     43  27  53 N5        29.99S
6HR MIN TEMP:  40; 6HR MAX TEMP:  52;

RATON          PTCLDY    39  34  82 N7        29.95S WCI  34
6HR MIN TEMP:  37; 6HR MAX TEMP:  50;

CLAYTON        CLEAR     52  35  52 NW14      29.87R
6HR MIN TEMP:  51; 6HR MAX TEMP:  57;


$$
NMZ532>537-011300-
EASTCENTRAL PLAINS

CITY           SKY/WX    TMP DP  RH WIND       PRES   REMARKS
TUCUMCARI      CLEAR     50  42  74 W6        29.86R
6HR MIN TEMP:  48; 6HR MAX TEMP:  62;

CANNON AFB     CLEAR     55  41  60 N9        29.87R
6HR MIN TEMP:  54; 6HR MAX TEMP:  63;

CLOVIS AIRPORT   N/A     54  41  62 NW7       29.89R

$$
NMZ028-029-538-011300-
SOUTHEAST PLAINS

CITY           SKY/WX    TMP DP  RH WIND       PRES   REMARKS
ROSWELL        CLEAR     51  46  83 W5        29.87R
6HR MIN TEMP:  51; 6HR MAX TEMP:  64;

CARLSBAD       CLEAR     57  53  86 NE5       29.84R
6HR MIN TEMP:  57; 6HR MAX TEMP:  66;

HOBBS          CLEAR     57  57 100 CALM      29.86


$$



USA.gov is the U.S. government's official web portal to all federal, state and local government web resources and services.